Tracking 29892 objects as of 21-Nov-2024
HD Live streaming from Space Station
objects crossing your sky now

COSMOS 2523

Track COSMOS 2523 now!
10-day predictions


NORAD ID: 42986
Int'l Code: 2017-037E
Perigee: 549.0 km
Apogee: 647.9 km
Inclination: 97.5 °
Period: 96.5 minutes
Semi major axis: 6969 km
RCS: Unknown
Launch date: June 23, 2017
Source: Commonwealth of Independent States (former USSR) (CIS)
Launch site: PLESETSK MISSILE AND SPACE COMPLEX (PKMTR)
Your satellite tracking list
Your tracking list is empty




NASA's NSSDC Master Catalog

Two Line Element Set (TLE):
1 42986U 17037E   24326.15749224  .00004017  00000-0  38187-3 0  9990
2 42986  97.5410 352.7545 0070945 350.5629   9.4252 14.92116240383403
Source of the keplerian elements: AFSPC